Weather History for Ann Arbor, MI

Change the Weather History Date:

Monday, October 7, 2013

  Actual Average Record
Temperature  
Mean Temperature 50 °F -  
Max Temperature 61 °F 63 °F 89 °F (2007)
Min Temperature 39 °F 36 °F 27 °F (2001)
Degree Days  
Heating Degree Days 16    
Moisture  
Dew Point 45 °F    
Average Humidity 81    
Maximum Humidity 100    
Minimum Humidity 57    
Precipitation  
Precipitation 0.00 in - - ()
Sea Level Pressure  
Sea Level Pressure 29.86 in    
Wind  
Wind Speed 9 mph (WSW)    
Max Wind Speed 24 mph    
Max Gust Speed 30 mph    
Visibility 9 miles    
Events      
Averages and records for this station are not official NWS values.
T = Trace of Precipitation, MM = Missing Value Source: NWS Daily Summary

Daily Weather History Graph

Daily Weather History Graph

Search for Another Location

Airport:

Trip Planner

Search our weather history database for the weather conditions in past years. The results will help you decide how hot, cold, wet, or windy it might be!

Date:

Astronomy

Oct. 07, 2013 Rise Set
Actual Time 7:38 AM EDT 7:05 PM EDT
Civil Twilight 7:10 AM EDT 7:33 PM EDT
Nautical Twilight 6:38 AM EDT 8:06 PM EDT
Astronomical Twilight 6:05 AM EDT 8:38 PM EDT
Moon 10:31 AM EDT (10/7) 8:46 PM EDT (10/7)
Length of Visible Light 12h 22m
Length of Day
11h 26m
Waxing Crescent, 8% of the Moon is Illuminated
Oct 7
Waxing Crescent
Oct 11
First Quarter
Oct 18
Full
Oct 26
Last Quarter
Nov 3
New

Hourly Weather History & Observations

Time (EDT) Temp. Windchill Dew Point Humidity Pressure Visibility Wind Dir Wind Speed Gust Speed Precip Events Conditions
12:35 AM 55.4 °F - 53.6 °F 94% 29.72 in 10.0 mi WSW 4.6 mph - N/A   Mostly Cloudy
12:49 AM 55.4 °F - 53.6 °F 94% 29.71 in 10.0 mi SW 4.6 mph - N/A   Overcast
12:53 AM 55.0 °F - 53.1 °F 93% 29.70 in 10.0 mi SW 4.6 mph - N/A   Overcast
1:43 AM 55.4 °F - 53.6 °F 94% 29.70 in 10.0 mi WSW 3.5 mph - N/A   Overcast
1:53 AM 55.0 °F - 53.1 °F 93% 29.69 in 10.0 mi WSW 6.9 mph - N/A   Overcast
2:53 AM 52.0 °F - 48.0 °F 86% 29.71 in 10.0 mi WSW 10.4 mph - N/A   Overcast
3:53 AM 50.0 °F - 46.0 °F 86% 29.72 in 10.0 mi WSW 13.8 mph - N/A   Overcast
4:42 AM 48.2 °F - 41.0 °F 76% 29.73 in 10.0 mi WSW 13.8 mph 21.9 mph N/A   Mostly Cloudy
4:53 AM 46.9 °F - 41.0 °F 80% 29.74 in 10.0 mi WSW 10.4 mph - N/A   Mostly Cloudy
5:53 AM 44.1 °F 39.5 °F 39.9 °F 85% 29.75 in 10.0 mi WSW 8.1 mph - N/A   Clear
6:53 AM 43.0 °F 38.2 °F 39.9 °F 89% 29.75 in 10.0 mi SW 8.1 mph - N/A   Clear
7:53 AM 43.0 °F 38.2 °F 39.9 °F 89% 29.78 in 10.0 mi SW 8.1 mph - N/A   Clear
8:53 AM 45.0 °F 40.6 °F 41.0 °F 86% 29.79 in 10.0 mi SW 8.1 mph - N/A   Mostly Cloudy
9:53 AM 48.9 °F - 43.0 °F 80% 29.79 in 10.0 mi WSW 10.4 mph - N/A   Clear
10:53 AM 50.0 °F - 42.1 °F 74% 29.81 in 10.0 mi WSW 15.0 mph 21.9 mph N/A   Overcast
11:53 AM 52.0 °F - 44.1 °F 74% 29.82 in 10.0 mi WSW 18.4 mph - 0.00 in   Overcast
12:11 PM 53.6 °F - 44.6 °F 72% 29.82 in 10.0 mi West 15.0 mph - N/A   Overcast
12:53 PM 55.9 °F - 45.0 °F 67% 29.83 in 10.0 mi WSW 20.7 mph 25.3 mph N/A   Mostly Cloudy
1:17 PM 57.2 °F - 46.4 °F 67% 29.83 in 10.0 mi West 21.9 mph 26.5 mph N/A   Mostly Cloudy
1:53 PM 57.0 °F - 44.1 °F 62% 29.83 in 10.0 mi West 19.6 mph 27.6 mph N/A   Overcast
2:53 PM 55.9 °F - 46.0 °F 69% 29.85 in 10.0 mi West 24.2 mph 29.9 mph N/A   Overcast
3:05 PM 55.4 °F - 46.4 °F 72% 29.86 in 10.0 mi West 18.4 mph 25.3 mph N/A   Overcast
3:13 PM 55.4 °F - 48.2 °F 77% 29.87 in 9.0 mi West 18.4 mph 26.5 mph N/A   Overcast
3:22 PM 53.6 °F - 48.2 °F 82% 29.87 in 9.0 mi West 17.3 mph 24.2 mph N/A   Overcast
3:53 PM 55.9 °F - 48.9 °F 77% 29.89 in 10.0 mi West 15.0 mph - N/A   Overcast
4:53 PM 57.0 °F - 48.0 °F 72% 29.91 in 10.0 mi WNW 10.4 mph - N/A   Mostly Cloudy
5:53 PM 60.1 °F - 45.0 °F 57% 29.94 in 10.0 mi NW 12.7 mph - N/A   Scattered Clouds
6:53 PM 57.0 °F - 42.1 °F 57% 29.98 in 10.0 mi NW 5.8 mph - N/A   Clear
7:53 PM 50.0 °F - 44.1 °F 80% 30.01 in 10.0 mi West 3.5 mph - N/A   Clear
8:53 PM 46.0 °F 43.1 °F 42.1 °F 86% 30.06 in 10.0 mi West 5.8 mph - N/A   Clear
9:53 PM 46.0 °F 43.1 °F 43.0 °F 89% 30.09 in 10.0 mi WSW 5.8 mph - N/A   Clear
10:53 PM 44.1 °F 42.5 °F 42.1 °F 93% 30.11 in 10.0 mi SW 3.5 mph - N/A   Clear
11:46 PM 39.2 °F 37.0 °F 39.2 °F 100% 30.12 in 1.5 mi South 3.5 mph - N/A   Clear
11:53 PM 39.9 °F 37.8 °F 39.0 °F 97% 30.14 in 1.2 mi SSW 3.5 mph - N/A   Clear
11:57 PM 39.2 °F 37.0 °F 37.4 °F 93% 30.12 in 2.0 mi SSW 3.5 mph - N/A   Clear